Selinsgrove, PA

2:47 AM EST on December 09, 2019 (GMT -0500)
Penn Valley

Weather History for KSEG - October, 2019

Change the Weather History Date:

Monday, October 14, 2019

  Actual Average (KIPT) Record (KIPT)
Temperature  
Mean Temperature 54 °F -  
Max Temperature 70 °F 60 °F 84 °F (1975)
Min Temperature 37 °F 40 °F 27 °F (1988)
Degree Days  
Heating Degree Days 12    
Growing Degree Days 4 (Base 50)    
Moisture  
Dew Point 40 °F    
Average Humidity 76    
Maximum Humidity 100    
Minimum Humidity 32    
Precipitation  
Precipitation 0.00 in - - ()
Sea Level Pressure  
Sea Level Pressure 30.01 in    
Wind  
Wind Speed 2 mph (WNW)    
Max Wind Speed 13 mph    
Max Gust Speed 25 mph    
Visibility 8 miles    
Events Fog    
Averages and records for this station are not official NWS values.
T = Trace of Precipitation, MM = Missing Value Source: NWS Daily Summary

Daily Weather History Graph

Daily Weather History Graph

Search for Another Location

Airport or City:

Astronomy

Oct. 14, 2019 Rise Set
Actual Time 7:17 AM EDT 6:28 PM EDT
Civil Twilight 6:49 AM EDT 6:56 PM EDT
Nautical Twilight 6:17 AM EDT 7:28 PM EDT
Astronomical Twilight 5:46 AM EDT 7:59 PM EDT
Moon 7:17 PM EDT (10/14) 7:46 AM EDT (10/14)
Length of Visible Light 12h 06m
Length of Day
11h 11m
Waxing Gibbous, 99% of the Moon is Illuminated
Oct 14
Waxing Gibbous
Oct 21
Last Quarter
Oct 27
New
Nov 4
First Quarter
Nov 12
Full

Hourly Weather History & Observations

Time (EDT) Temp. Windchill Dew Point Humidity Pressure Visibility Wind Dir Wind Speed Gust Speed Precip Events Conditions
12:53 AM 39.9 °F - 39.0 °F 97% 30.00 in 10.0 mi Calm Calm - N/A   Clear
1:53 AM 39.0 °F - 37.9 °F 96% 29.99 in 10.0 mi Calm Calm - N/A   Clear
2:53 AM 37.0 °F - 36.0 °F 96% 29.99 in 7.0 mi Calm Calm - N/A   Clear
3:53 AM 37.0 °F - 36.0 °F 96% 29.98 in 7.0 mi Calm Calm - N/A   Clear
4:13 AM 37.0 °F - 37.0 °F 100% 29.98 in 7.0 mi Calm Calm - N/A   Scattered Clouds
4:22 AM 37.9 °F - 37.0 °F 97% 29.98 in 8.0 mi Calm Calm - N/A   Mostly Cloudy
4:53 AM 39.0 °F - 37.9 °F 96% 29.99 in 6.0 mi Calm Calm - N/A   Overcast
5:19 AM 39.9 °F - 39.0 °F 97% 29.99 in 1.2 mi Calm Calm - N/A   Overcast
5:21 AM 39.9 °F - 39.0 °F 97% 29.99 in 0.8 mi Calm Calm - N/A   Mist
5:53 AM 41.0 °F - 39.9 °F 96% 29.99 in 0.2 mi Calm Calm - N/A Fog Fog
6:53 AM 39.9 °F - 39.9 °F 100% 30.00 in 0.2 mi Calm Calm - N/A Fog Fog
7:53 AM 39.0 °F - 39.0 °F 100% 30.02 in 0.2 mi Calm Calm - N/A Fog Fog
8:53 AM 42.1 °F - 41.0 °F 96% 30.04 in 3.0 mi Calm Calm - N/A   Mostly Cloudy
9:15 AM 44.1 °F - 43.0 °F 96% 30.03 in 7.0 mi Calm Calm - N/A   Partly Cloudy
9:53 AM 46.0 °F 44.8 °F 45.0 °F 96% 30.04 in 10.0 mi SE 3.5 mph - N/A   Partly Cloudy
10:53 AM 57.0 °F - 48.0 °F 72% 30.02 in 10.0 mi Variable 3.5 mph - N/A   Clear
11:53 AM 62.1 °F - 46.9 °F 58% 30.00 in 10.0 mi SSE 9.2 mph - N/A   Clear
12:53 PM 66.9 °F - 39.9 °F 37% 29.99 in 10.0 mi SW 12.7 mph 18.4 mph N/A   Clear
1:53 PM 68.0 °F - 39.9 °F 36% 29.98 in 10.0 mi Variable 5.8 mph 17.3 mph N/A   Clear
2:53 PM 69.1 °F - 39.0 °F 33% 29.95 in 10.0 mi West 8.1 mph 25.3 mph N/A   Clear
3:53 PM 70.0 °F - 39.0 °F 32% 29.95 in 10.0 mi Variable 5.8 mph - N/A   Clear
4:53 PM 68.0 °F - 37.9 °F 33% 29.96 in 10.0 mi WNW 8.1 mph - N/A   Clear
5:53 PM 64.0 °F - 37.9 °F 38% 29.98 in 10.0 mi WNW 5.8 mph - N/A   Clear
6:53 PM 60.1 °F - 37.9 °F 44% 30.00 in 10.0 mi NW 5.8 mph - N/A   Clear
7:53 PM 57.9 °F - 37.9 °F 47% 30.04 in 10.0 mi NW 8.1 mph - N/A   Clear
8:53 PM 48.0 °F - 41.0 °F 77% 30.07 in 10.0 mi NNW 5.8 mph - N/A   Clear
9:53 PM 46.9 °F - 39.9 °F 77% 30.08 in 10.0 mi NW 3.5 mph - N/A   Clear
10:53 PM 44.1 °F 42.5 °F 39.9 °F 85% 30.08 in 10.0 mi NNW 3.5 mph - N/A   Clear
11:53 PM 48.0 °F - 39.9 °F 74% 30.11 in 10.0 mi Calm Calm - N/A   Clear